Location: Newark
(7.0858°N, 171.3717°E)
Time: 12:14:26
(UTC+00:00)

Vanguard 1 Rocket - Pass Details

Date: 03 December 2020
Orbit: 655 x 4222 km, 34.3° (Epoch: 23 January)

Event Time Altitude Azimuth Distance (km) Brightness Sun altitude
Rises 06:45:22 0° 196° (SSW) 4,793 11.7 -7.5°
Reaches altitude 10° 06:49:21 10° 179° (S) 4,319 11.1 -8.4°
Maximum altitude 06:58:10 21° 134° (SE) 4,504 10.7 -10.4°
Drops below altitude 10° 07:11:02 10° 93° (E) 6,563 11.2 -13.4°
Enters shadow 07:11:34 - 92° (E) 6,660 11.2 -13.5°
